Location: Mentone
(34.5413°N, 85.5351°W)
Time: 11:39:37
(UTC-06:00)

Centaur AC-72 - Visible Passes

Search period start: 19 November 2017 00:00
Search period end: 29 November 2017 00:00
Orbit: 1057 x 35299 km, 18.9° (Epoch: 18 November)

Date Brightness Start Highest point End Pass type
(mag) Time Alt. Az. Time Alt. Az. Time Alt. Az.
19 Nov 6.5 12:28:36 10° SW 14:54:09 51° SW 21:59:57 30° SSW visible
20 Nov 6.6 09:29:50 10° SSW 15:02:22 70° S 19:16:54 16° SE visible
22 Nov 10.4 15:50:48 10° W 17:11:49 17° W 19:33:56 10° W visible
23 Nov 6.4 12:12:03 10° SW 14:38:09 52° SW 21:46:00 27° SSW visible
24 Nov 6.7 09:13:45 10° SSW 14:52:26 70° S 19:02:57 10° SE visible
26 Nov 10.2 15:30:35 10° W 16:55:54 19° W 19:32:22 10° W visible
27 Nov 6.4 11:55:32 10° SW 14:22:08 53° SW 21:32:01 24° S visible
28 Nov 6.7 08:57:40 10° SSW 14:42:36 71° S 18:47:06 10° SE visible
